SAUDICOMSAT 6

Satellite information

Favourite Embed

Satellite Type and Status

PAYLOADIN ORBIT

Key statistics

Satellite SAUDICOMSAT 6 at a glance.

Uptime

6656

Days in orbit

Revolutions

≈ 14.6

Per day

Orbit

SSO

Sun Synchronous Orbit

Inclination

98.4

Latest

Satellite identification and parameters

Extended collection of information and parameters for SAUDICOMSAT 6.

Object identification

Identified? True

Debris? False

Object name: SAUDICOMSAT 6

International designator: 2007-012E

Object number (NORAD): 31121

Object ID (CCSDS): 31121

Country: SAUDI ARABIA (SAUD)

Current information (Y/N): Y

RCS size: SMALL

Orbital parameters

Period: 98.501 minutes

Inclination: 98.3593 deg

SMA: 7065.158 km

Apoapsis: 737.785 km

Periapsis: 636.26 km

RAAN: 144.6932 deg

Eccentricy: 0.0071849

Argument of periapsis: 324.4964 deg

Mean anomaly: 35.1466 deg

Mean motion: 14.6190776 rev/day

Mean motion (dot): 0.00000521 rev/day2

B* drag term: 0.00011062 1/REarth

Two-line elements (TLE)

Creation date: July 6, 2025, 6:05 p.m.

Reference frame: TEME

Reference center: EARTH

Epoch: July 6, 2025, 9:22 a.m. UTC

TLE line 0: 0 SAUDICOMSAT 6

TLE line 1: 1 31121U 07012E 25187.39082178 .00000521 00000-0 11062-3 0 9990

TLE line 2: 2 31121 98.3593 144.6932 0071849 324.4964 35.1466 14.61907760969647

Live tracking on map

Real-time ground track for satellite SAUDICOMSAT 6.

In-orbit conjunctions

There are no conjunctions computed for SAUDICOMSAT 6, at the moment. Check back to stay up to date, as we update our databases every day.

Go to all conjunctions

Associated space launch

Rideshare mission with Egyptian and Saudi Arabian Earth observation satellites as well as 14 American cubesats

SAUDICOMSAT 6 was lifted into orbit during the mission ‘Dnepr | EgyptSat 1 & Saudisat 3’, on board a Dnepr space rocket.

The launch took place on April 17, 2007, 6:46 a.m. from 109/95.

For more information about the launch, click the button.

Launch to space Dnepr | EgyptSat 1 & Saudisat 3
Dnepr | EgyptSat 1 & Saudisat 3

Agency: N/A

Status: Launch Successful

Launch date: April 17, 2007, 6:46 a.m. UTC

Rocket: Dnepr

Launch pad: 109/95

Location: Baikonur Cosmodrome, Republic of Kazakhstan

...

Latest news about this satellite

There are no fresh news available about this satellite. Check back as we update our databases every day.


Newsletter sign-up

Weekly statistics, charts and insights to help you stay on top of the space industry.